STARLINK-33817, 63583

Orbit data source: Space-Track

STARLINK-33817, 63583 is a payload satellite owned by SpaceX/Seattle (US) in LEO that was launched on Mon, 14 Apr 2025 UTC via an FALCON 9 launch vehicle from the Air Force Eastern Test Range (AFETR). Payload-class satellites include a variety of spacecraft equipped with specific instruments for various scientific and technological missions. These include communications satellites like Starlink; space stations such as the ISS; scientific satellites like the Hubble; Earth observation satellites from companies like Planet Labs, Umbra, and HawkEye 360; GPS; miniature CubeSats for education and research; and military/defense satellites.

Loading next visibility...
Identifier
63583, 2025-076Q
Orbit
LEO
Country
Flag of USUS
Related business
Manufacturer
SpaceX/Seattle
Mission
Operational Commercial Communications
Bus & Motor
STARLINK V2MO, Unknown motor
Mass
575 kg wet, ~530 kg dry
Launch date (UTC)
2025-04-14 (1 year ago)
Launch vehicle
FALCON 9
Launch site
Air Force Eastern Test Range (AFETR)
Object type
Payload
Rocket body
Debris
Shape & HBR
Box + 2 Pan, 17.7 m
Radar Cross Section
36.964 m², Large (>1 m²)

Expand to show TLE details & history
Last TLE update: 10 hours ago

TLE from 10 hours ago
0 STARLINK-33817
1 63583U 25076Q   26144.99081372  .00011875  00000-0  44022-3 0  9998
2 63583  42.9982 250.4407 0001086 269.0638  91.0089 15.27589470 63499
Epoch: 2026-05-24T23:46Z
TLE epoch observation values (Epoch: 2026-05-24T23:46:46.305Z)
Latitude
-0.00003°
Longitude
11.16271°
Altitude
482.809 km
Speed
7.626 km/s
True Right ascension
16h 41m 45s
True Declination
0° 00' 00"
Sunlit
Object was in full shadow at epoch
Visualization orbit readout
Latitude
Unknown
Longitude
Unknown
Altitude
Unknown
Speed
Unknown
Apparent Right ascension
Unknown
Apparent Declination
Unknown
Sunlit
N/A
Visualization observer readout
Local Sidereal Time
18:35:58
Azimuth
Unknown
Elevation
Unknown
Doppler factor
Unknown
Orbital elements
Apogee altitude
485.712 km
Perigee altitude
484.221 km
Semi-major axis
6,863.103 km
Eccentricity
0.00011
Inclination
42.9982°
RAAN
250.4407°
Arg. of periapsis
269.0638°
True anomaly
91.02134°
Mean anomaly
91.0089°
Eccentric anomaly
91.01512°
Mean motion
3.81735 °/min
Orbital period
94.31 mins
BSTAR
0.00044022
Loading maneuver chart data...
Computing Atmospheric mass density...
Loading historical data...
Loading historical data...
Loading historical data...
Loading historical data...
Loading historical data...
Loading historical data...
Loading historical data...

Documentation

Showing up to 5 results
|